Theta_e
324 319 319 322 321 321 321 321 321 320 318 317 316 315 314 314 314 314 314 315 315 317 318 318 318 319 319 319 318 318 319 319 318 318 318 318 317 316 316 317 318 317 317
327 323 319 319 320 321 321 320 320 320 320 317 315 315 315 315 316 314 314 314 316 317 319 320 319 319 319 318 317 317 317 317 318 318 317 317 317 317 317 318 319 318 316
326 325 324 321 319 319 320 321 322 322 321 320 318 315 315 315 315 315 316 316 316 316 316 316 316 318 318 318 318 317 317 317 317 317 317 318 318 318 319 319 319 319 319
327 327 326 325 324 322 321 319 319 321 322 321 320 321 320 320 318 316 315 315 316 316 316 316 317 316 316 318 320 319 318 319 318 319 319 319 319 319 319 320 319 319 319
326 326 326 326 326 325 324 323 322 320 319 321 322 323 322 321 321 321 319 317 316 317 316 316 317 317 316 317 319 319 319 319 319 319 320 320 320 320 319 319 320 320 320
321 323 325 325 326 326 325 325 324 324 323 321 319 322 324 322 322 322 322 321 321 320 319 319 320 318 317 317 318 319 319 319 320 320 320 320 319 319 319 320 320 319 317
317 319 322 324 324 324 325 325 326 326 325 324 324 323 323 321 320 321 322 322 321 321 320 320 319 320 320 319 320 320 320 321 321 321 320 320 320 320 320 319 319 319 315
312 314 316 318 320 322 322 323 324 325 326 326 326 326 325 325 325 323 321 322 322 322 322 322 322 322 322 321 321 321 321 321 321 321 321 321 320 320 319 317 315 311 305
309 310 310 312 315 317 318 319 320 323 323 325 326 326 326 327 327 326 325 323 323 323 323 323 323 322 322 321 321 321 321 321 322 321 321 321 319 317 316 311 305 304 301
307 308 309 309 309 311 313 316 318 318 319 325 325 326 326 325 326 326 327 326 325 325 324 324 323 323 322 322 322 323 322 321 319 316 313 309 306 303 301 299 299 299 298
305 305 306 307 308 308 309 309 312 316 318 320 324 325 326 326 326 325 326 326 326 326 326 325 324 324 324 324 323 321 319 315 303 298 298 297 296 296 295 295 294 295 294
299 301 302 302 303 305 305 306 308 310 314 319 324 322 322 322 323 325 326 326 325 325 325 322 315 311 308 307 308 310 303 298 295 294 293 292 291 291 290 291 291 290 290
296 295 294 294 296 298 301 303 306 308 308 310 309 308 306 305 309 312 314 319 322 317 309 294 291 299 298 295 292 291 289 292 292 292 292 291 288 287 286 287 286 285 285
294 293 292 292 292 293 294 295 296 297 298 298 298 298 296 296 295 296 296 297 300 299 294 290 293 292 290 291 291 292 292 290 288 288 286 284 284 284 284 284 284 282 281
291 290 290 289 288 287 287 287 286 287 290 291 291 291 291 290 288 291 291 291 290 291 291 291 290 290 290 287 288 287 285 286 286 284 283 282 283 283 281 279 278 277 276
291 290 289 288 288 287 286 285 285 285 285 285 286 287 286 287 287 288 289 289 291 290 291 289 287 287 287 285 285 285 284 285 283 283 282 280 278 276 275 275 274 274 274
290 289 288 288 287 287 287 287 286 285 285 285 285 285 285 286 286 288 289 289 287 289 290 285 285 284 283 282 281 281 281 280 278 276 275 274 274 274 273 273 272 272 272
288 288 288 287 287 287 286 286 288 287 285 284 284 285 285 285 285 285 285 286 286 286 284 281 280 280 279 279 278 277 276 275 274 273 273 272 272 272 272 271 271 272 271
288 287 287 286 286 286 286 286 285 285 284 283 282 283 283 283 284 284 284 284 282 280 279 279 278 278 276 275 274 273 273 272 272 272 271 271 271 272 272 271 271 270 270
285 285 285 284 284 284 284 284 283 283 282 282 282 280 280 281 282 280 279 279 278 277 276 275 274 274 273 273 272 272 272 271 271 271 271 271 271 271 271 270 270 270 269
283 283 283 283 282 281 281 281 280 280 279 278 278 276 276 276 276 275 274 274 274 273 273 273 272 272 272 272 272 271 271 271 270 270 270 270 270 270 270 269 269 268 268
281 281 280 280 279 279 278 278 277 277 276 275 274 274 273 273 273 273 272 272 272 271 271 271 271 271 271 270 270 270 270 270 270 270 270 270 269 269 269 269 268 268 267
278 278 278 277 277 276 276 275 275 274 274 273 273 272 272 272 271 271 271 271 270 271 271 270 270 270 270 270 270 270 270 270 269 269 269 269 268 268 268 268 267 267 267
276 275 275 275 275 274 274 274 273 273 272 272 272 271 271 271 270 270 270 271 270 270 270 270 270 270 270 269 269 269 269 268 268 268 268 268 268 268 268 268 268 267 267
274 274 273 273 273 273 272 272 272 271 271 270 270 270 270 270 269 269 269 269 269 269 269 269 269 269 268 268 268 268 268 268 268 268 268 268 268 268 268 268 267 267 267
273 272 272 272 271 271 271 271 270 270 270 269 269 269 269 268 268 268 268 268 267 267 267 268 268 268 268 268 268 268 268 268 268 268 267 267 267 267 268 268 268 267 266
Wind_Speed
19 23 26 32 33 34 38 39 39 40 46 48 47 45 45 46 47 48 46 45 47 45 47 47 45 46 46 44 44 45 46 46 48 49 49 48 48 49 48 47 44 44 45
18 20 24 25 32 36 37 38 38 39 42 48 49 50 50 50 50 52 52 53 53 52 50 49 51 50 50 48 49 50 50 50 52 55 53 53 55 53 50 48 47 48 46
24 23 23 26 28 32 35 39 39 40 42 44 48 55 55 54 54 55 57 57 57 58 57 56 57 54 56 55 54 54 54 54 55 56 58 56 56 55 53 51 51 50 51
28 28 30 29 29 30 30 32 36 39 42 45 47 51 53 55 58 62 61 62 64 66 66 66 64 63 63 59 58 56 56 56 56 57 57 54 49 51 52 52 52 51 47
15 27 31 32 32 33 34 35 35 36 39 42 45 47 48 53 55 57 59 62 66 64 66 66 67 67 67 63 59 61 59 57 57 56 50 49 47 51 53 54 55 52 53
5 4 14 26 30 36 38 39 39 40 42 41 44 48 50 51 53 54 56 58 58 60 61 63 62 63 66 67 64 57 55 54 56 54 51 49 51 54 55 56 56 53 54
7 7 4 8 12 24 34 34 42 46 46 47 46 45 48 52 52 54 53 53 55 57 58 58 58 60 59 58 55 52 52 53 56 58 58 57 55 52 54 56 55 56 53
15 12 11 13 13 15 14 24 38 42 43 50 51 50 51 50 48 51 53 54 55 58 58 57 57 57 56 54 52 52 54 58 59 60 61 68 65 65 55 53 47 43 35
21 21 20 18 17 19 21 22 22 31 39 52 52 54 54 54 51 49 49 52 56 57 56 58 60 59 57 55 54 53 54 56 59 58 57 57 57 54 53 39 27 24 23
19 21 23 25 25 24 23 24 28 31 33 43 48 51 53 55 53 52 49 49 55 59 60 63 62 64 61 59 58 58 59 56 54 49 42 37 31 22 15 15 18 20 20
20 20 21 23 25 25 26 27 27 28 33 35 39 48 50 52 54 55 52 52 53 59 58 59 63 65 64 61 60 55 55 48 33 23 20 18 16 13 11 12 11 11 11
23 21 20 20 22 23 25 25 24 26 25 24 30 39 43 45 48 52 53 53 49 51 53 53 43 38 30 27 31 37 33 32 26 23 20 15 13 12 9 6 3 2 4
20 21 23 23 24 21 20 19 19 18 16 15 16 20 18 14 22 26 28 39 45 38 33 16 22 25 24 24 27 28 18 25 23 19 18 14 7 6 3 3 2 3 5
20 20 21 23 25 24 23 23 19 15 12 8 4 3 2 2 3 1 3 9 18 21 24 22 22 27 24 31 25 20 19 12 12 14 12 10 7 3 1 2 3 5 5
20 20 21 21 24 29 29 33 31 25 17 14 14 13 13 15 13 13 18 23 27 30 31 29 27 29 29 21 25 21 17 15 13 9 6 3 3 2 3 4 5 7 6
19 20 20 20 21 24 29 32 34 34 34 32 30 29 28 25 24 26 26 25 28 25 26 27 24 22 21 16 14 15 11 11 9 6 2 2 1 1 1 3 5 6 5
19 18 18 19 21 23 25 27 30 28 28 29 28 27 24 21 18 17 16 18 15 16 24 19 22 16 18 14 11 12 10 9 6 5 2 3 4 3 3 3 4 4 6
16 15 16 18 19 19 21 22 23 22 22 22 21 20 18 16 15 13 12 11 14 19 18 16 18 15 12 11 9 8 7 7 6 4 4 5 5 4 3 5 7 8 8
14 14 14 14 14 14 14 15 17 17 17 16 14 15 13 9 9 10 8 13 16 16 15 13 12 11 9 9 9 8 7 5 5 6 6 6 5 5 5 6 6 8 8
10 8 8 8 9 9 10 12 13 13 12 12 12 13 10 6 10 13 13 12 11 11 11 10 10 9 8 7 7 7 5 3 4 5 4 4 5 5 5 6 7 8 10
7 7 6 7 8 8 8 10 10 10 11 12 13 12 10 8 10 11 10 10 10 11 10 9 7 6 6 6 6 4 3 3 3 4 3 3 4 5 5 7 8 9 9
3 4 4 5 6 7 8 8 7 8 8 9 10 10 9 8 10 10 9 8 8 7 7 7 6 5 5 4 3 3 3 3 3 3 4 4 5 5 6 7 7 6 6
2 3 3 4 5 5 5 7 7 7 8 8 8 8 8 9 9 7 7 7 6 5 5 5 4 4 4 4 3 3 4 3 3 4 4 4 5 5 5 5 6 5 6
2 2 3 4 4 4 5 6 7 7 7 6 7 7 7 8 8 7 6 5 5 4 4 3 3 3 3 3 4 3 3 3 5 6 6 6 6 7 7 7 6 6 7
3 3 4 4 4 5 4 4 4 4 4 5 6 6 7 6 6 6 5 4 4 4 5 4 4 4 5 4 4 4 5 6 7 7 8 7 6 6 6 6 7 7 8
2 2 3 3 3 2 2 2 2 4 5 5 6 7 8 9 9 7 7 7 7 8 9 9 9 7 7 7 6 7 8 8 8 8 8 7 7 7 8 8 9 8 7
Wind_Direction
225 224 216 213 216 221 226 229 230 230 227 228 227 226 225 224 227 231 232 232 233 236 239 242 244 244 246 249 251 252 256 259 260 264 267 270 271 278 280 279 274 279 277
238 234 231 228 221 225 229 233 234 233 231 231 232 232 232 232 231 232 235 237 239 241 243 245 248 250 252 254 256 258 260 262 264 266 271 272 274 279 281 279 274 274 268
250 249 243 238 236 234 233 235 239 238 237 236 236 237 239 241 240 239 239 240 242 245 248 251 252 253 255 257 256 260 262 265 267 268 271 273 274 276 278 279 276 274 276
262 257 255 252 251 248 246 244 241 240 239 240 241 240 241 243 245 246 246 246 247 250 253 254 257 258 259 262 262 260 265 268 272 271 270 272 269 271 273 274 275 276 274
253 266 265 262 261 262 260 255 253 249 247 244 244 246 245 243 244 245 247 248 250 253 254 255 258 257 259 262 263 264 268 268 270 267 264 266 262 262 266 274 276 279 279
62 35 256 272 273 268 264 260 259 258 256 251 250 248 248 249 248 247 249 252 253 253 255 258 259 260 262 263 266 266 268 267 269 266 265 264 266 269 270 272 274 266 266
342 304 314 262 265 266 271 274 267 261 260 259 258 254 252 254 256 254 252 251 254 256 257 258 259 261 263 264 266 267 265 263 262 264 264 266 265 260 265 267 264 265 260
358 340 316 293 279 258 252 248 258 271 269 264 262 263 260 261 263 262 259 255 255 256 258 260 262 264 265 266 265 263 260 259 261 263 265 264 262 265 256 253 256 249 241
357 352 341 324 301 286 282 270 262 254 254 260 268 265 260 262 264 264 261 254 253 255 258 256 257 259 261 261 257 255 256 257 260 258 259 260 261 263 262 254 236 232 225
357 347 336 332 326 316 299 288 280 275 272 256 256 257 257 263 264 261 259 256 253 252 254 251 253 255 253 254 255 258 254 250 247 248 245 247 246 237 223 214 209 204 207
354 348 339 330 325 322 321 314 305 289 278 278 255 250 249 247 247 254 254 251 253 250 251 251 250 250 250 250 251 249 244 232 216 198 187 181 167 161 169 166 181 170 193
358 354 353 347 339 332 326 327 321 312 298 279 253 243 239 239 241 243 245 246 246 243 244 243 239 235 232 230 229 224 208 183 165 153 140 133 128 133 143 138 161 197 217
8 11 11 8 7 2 350 340 331 322 311 290 257 238 234 239 240 243 243 241 241 235 224 168 156 196 183 161 146 137 123 140 143 140 133 135 131 134 158 133 263 283 278
24 26 26 26 28 29 27 24 17 6 354 338 298 241 251 284 9 279 157 194 193 177 149 119 127 122 110 119 116 117 123 119 109 112 114 123 135 125 22 322 282 277 255
40 43 44 46 52 58 57 59 55 50 48 64 75 80 82 82 84 108 125 124 122 122 124 122 123 117 122 116 119 120 120 116 109 105 105 99 103 63 325 310 300 296 312
47 48 51 57 63 72 79 80 85 84 84 87 93 95 94 100 112 114 113 122 118 133 124 121 113 111 112 108 109 111 104 91 98 95 97 127 72 33 320 324 314 319 328
57 62 66 72 76 78 81 82 82 75 81 82 84 89 92 96 97 101 105 103 120 121 105 109 110 111 102 100 95 92 93 89 84 97 121 91 75 35 358 0 360 349 357
65 69 72 77 81 83 88 89 90 84 74 71 76 85 86 89 94 90 93 112 105 93 101 105 105 102 103 99 90 81 79 76 87 82 65 55 50 50 37 5 351 352 350
65 68 71 73 74 77 81 83 85 88 87 80 74 70 70 75 87 92 99 88 91 99 104 102 94 92 88 81 76 72 67 60 67 57 44 41 30 17 2 348 340 337 343
62 73 81 81 84 83 83 84 84 84 84 83 75 64 61 62 71 72 71 76 84 85 80 81 81 79 79 81 70 53 38 8 28 37 42 25 10 358 350 335 332 331 343
66 68 69 88 96 93 87 78 75 73 70 66 63 53 43 46 66 71 74 75 76 76 74 71 73 67 64 59 56 52 37 16 27 22 17 14 0 353 338 324 325 329 336
62 81 93 86 81 86 83 78 71 62 55 53 55 53 49 59 68 69 69 69 67 63 60 51 45 42 40 37 36 24 3 353 342 341 349 348 337 328 324 323 322 320 306
71 97 96 90 83 81 76 72 69 64 59 56 56 57 55 55 59 63 60 57 47 37 41 29 13 2 358 349 339 318 314 319 325 317 321 317 313 314 323 315 317 306 309
58 77 86 88 76 70 69 67 61 54 49 48 49 46 41 38 31 28 25 20 15 16 7 349 315 308 308 297 291 300 307 314 319 322 326 332 338 333 328 319 307 306 309
62 68 77 75 67 60 54 54 50 39 26 14 6 0 4 10 10 8 357 347 346 341 332 323 329 341 339 332 328 314 310 314 315 320 328 330 317 313 314 309 307 310 314
38 47 48 46 40 23 3 357 349 340 334 329 324 324 326 330 333 332 329 325 325 321 322 327 332 331 325 321 326 318 316 320 324 320 311 307 304 310 315 316 308 302 306